Погода в Павлоградке

Россия / Омская область     54°12′12″N   73°33′48″E
темп.,
°C
ветер,
м/с
пор.,
м/с
влажн.,
%
обл.,
%
осадки,
мм/ч
давл.,
гПа
погр.,
м
11 апреля, вс
вс1100:00−1в4695100 0.0 1042309
03:00−1в4593100 0.0 1042358
06:00−1в4590100 0.0 1043405
09:000в3487100 0.0 1043458
12:00+2вюв238449 0.0 1042451
15:00+4в11785 0.0 1041399
18:00+4вюв12845 0.0 104150
21:00+1ююв22885 0.0 104012
12 апреля, пн
пн1200:00+1ююз22897 0.0 103920
03:000юз34909 0.0 103852
06:000зюз3486100 0.0 103857
09:00+3зюз3676100 0.0 1036187
12:00+7зюз4665100 0.0 1035365
15:00+9з576282 0.0 1034493
18:00+9з476899 0.0 1033328
21:00+6сз3585100 0.0 103475
13 апреля, вт
вт1300:00+6с4895100 0.0 1035281
03:00+4ссв3896100 0.0 1036210
06:00+2ссв3893100 0.0 1038168
09:00+4ссв35735 0.0 1039277
12:00+8с34500 0.0 1039835
15:00+10ссз34390 0.0 10391065
18:00+10ссз34380 0.0 10381017
21:00+7сз225420 0.0 103811
14 апреля, ср
ср1400:00+6з22600 0.0 103811
03:00+4з22674 0.0 103715
06:00+3зюз337065 0.0 103726
09:00+7зюз35618 0.0 1036214
12:00+11зюз5644100 0.0 1034725
15:00+13зюз5737100 0.0 1031889
18:00+13зюз474127 0.0 1029869
21:00+9зюз34569 0.0 102847
15 апреля, чт
чт1500:00+7зюз346296 0.0 102746
03:00+6з336727 0.0 102537
06:00+5зюз34735 0.0 102447
09:00+9з35645 0.0 1023187
12:00+14зюз45525 0.0 1022629
15:00+17з56485 0.0 10201103
18:00+17з45515 0.0 10191175
21:00+13зюз33694 0.0 101834